Location: Kellogg
(38.0159°N, 90.0546°W)
Time: 16:33:13
(UTC+00:00)

Altair - Pass Details

Date: 16 September 2024
Orbit: 1501 x 1682 km, 47.2° (Epoch: 15 October)

Event Time Altitude Azimuth Distance (km) Brightness Sun altitude
Exits shadow 09:17:17 44° 275° (W) 2,180 7.8 -28.3°
Maximum altitude 09:20:50 66° 338° (NNW) 1,804 7.7 -27.7°
Drops below altitude 10° 09:30:58 10° 60° (ENE) 3,947 10.7 -25.9°
Sets 09:34:12 0° 64° (ENE) 4,932 11.5 -25.3°
